User: anonymous   Login
Location: Unspecified
(0.0000°N, 0.0000°E)
Time: 17:46:35
(UTC+00:00)
Language:

Skynet 4B - Orbit

View from above orbital plane
View from above orbital plane
View from above satellite
View from above satellite

Ground track
Ground track

The orbit data is extracted from the following two-line orbital elements,

1 19687U 88109A   17083.83461760 +.00000027 +00000-0 +00000-0 0  9990
2 19687 015.4095 006.2962 0006106 256.3732 103.5549 00.99673250084564
Epoch (UTC): 24 March 2017 20:01:50
Eccentricity: 0.0006106
inclination: 15.4095°
perigee height: 35929 km
apogee height: 35980 km
right ascension of ascending node: 6.2962°
argument of perigee: 256.3732°
revolutions per day: 0.99673250
mean anomaly at epoch: 103.5549°
orbit number at epoch: 8456

The dashed part of the orbit path shows where the satellite is in the earth's shadow,  

DLR